Time,TemperatureF,DewpointF,PressureIn,WindDirection,WindDirectionDegrees,WindSpeedMPH,WindSpeedGustMPH,Humidity,HourlyPrecipIn,Conditions,Clouds,dailyrainin,SolarRadiationWatts/m^2,SoftwareType,DateUTC
2013-06-03 00:22:00,45.0,21.0,-100.00,WNW,283,3.0,7.0,38,0.00,,,0.00,0.000000,,2013-06-03 06:22:00,
2013-06-03 00:32:00,45.0,21.0,-100.00,WNW,283,3.0,7.0,38,0.00,,,0.00,0.000000,,2013-06-03 06:32:00,
2013-06-03 00:42:00,45.0,21.0,-100.00,WNW,283,3.0,7.0,38,0.00,,,0.00,0.000000,,2013-06-03 06:42:00,
2013-06-03 00:52:00,45.0,21.0,-100.00,WNW,283,3.0,7.0,38,0.00,,,0.00,0.000000,,2013-06-03 06:52:00,
2013-06-03 01:22:00,43.0,21.0,-100.00,West,271,4.0,6.0,41,0.00,,,0.00,0.000000,,2013-06-03 07:22:00,
2013-06-03 01:32:00,43.0,21.0,-100.00,West,271,4.0,6.0,41,0.00,,,0.00,0.000000,,2013-06-03 07:32:00,
2013-06-03 01:42:00,43.0,21.0,-100.00,West,271,4.0,6.0,41,0.00,,,0.00,0.000000,,2013-06-03 07:42:00,
2013-06-03 01:52:00,43.0,21.0,-100.00,West,271,4.0,6.0,41,0.00,,,0.00,0.000000,,2013-06-03 07:52:00,
2013-06-03 02:12:00,42.0,22.0,-100.00,NW,311,2.0,7.0,44,0.00,,,0.00,0.000000,,2013-06-03 08:12:00,
2013-06-03 02:22:00,42.0,22.0,-100.00,NW,311,2.0,7.0,44,0.00,,,0.00,0.000000,,2013-06-03 08:22:00,
2013-06-03 02:32:00,42.0,22.0,-100.00,NW,311,2.0,7.0,44,0.00,,,0.00,0.000000,,2013-06-03 08:32:00,
2013-06-03 02:42:00,42.0,22.0,-100.00,NW,311,2.0,7.0,44,0.00,,,0.00,0.000000,,2013-06-03 08:42:00,
2013-06-03 02:52:00,42.0,22.0,-100.00,NW,311,2.0,7.0,44,0.00,,,0.00,0.000000,,2013-06-03 08:52:00,
2013-06-03 03:22:00,41.0,22.0,-100.00,WNW,297,3.0,5.0,46,0.00,,,0.00,0.000000,,2013-06-03 09:22:00,
2013-06-03 03:33:00,41.0,22.0,-100.00,WNW,297,3.0,5.0,46,0.00,,,0.00,0.000000,,2013-06-03 09:33:00,
2013-06-03 03:42:00,41.0,22.0,-100.00,WNW,297,3.0,5.0,46,0.00,,,0.00,0.000000,,2013-06-03 09:42:00,
2013-06-03 03:52:00,41.0,22.0,-100.00,WNW,297,3.0,5.0,46,0.00,,,0.00,0.000000,,2013-06-03 09:52:00,
2013-06-03 04:22:00,37.0,21.0,-100.00,North,9,1.0,4.0,53,0.00,,,0.00,0.000000,,2013-06-03 10:22:00,
2013-06-03 04:33:00,37.0,21.0,-100.00,North,9,1.0,4.0,53,0.00,,,0.00,0.000000,,2013-06-03 10:33:00,
2013-06-03 04:42:00,37.0,21.0,-100.00,North,9,1.0,4.0,53,0.00,,,0.00,0.000000,,2013-06-03 10:42:00,
2013-06-03 04:52:00,37.0,21.0,-100.00,North,9,1.0,4.0,53,0.00,,,0.00,0.000000,,2013-06-03 10:52:00,
2013-06-03 05:22:00,37.0,22.0,-100.00,West,263,2.0,3.0,55,0.00,,,0.00,0.000000,,2013-06-03 11:22:00,
2013-06-03 05:32:00,37.0,22.0,-100.00,West,263,2.0,3.0,55,0.00,,,0.00,0.000000,,2013-06-03 11:32:00,
2013-06-03 05:42:00,37.0,22.0,-100.00,West,263,2.0,3.0,55,0.00,,,0.00,0.000000,,2013-06-03 11:42:00,
2013-06-03 05:52:00,37.0,22.0,-100.00,West,263,2.0,3.0,55,0.00,,,0.00,0.000000,,2013-06-03 11:52:00,
2013-06-03 06:22:00,37.0,22.0,-100.00,NW,318,3.0,5.0,54,0.00,,,0.00,3.000000,,2013-06-03 12:22:00,
2013-06-03 06:32:00,37.0,22.0,-100.00,NW,318,3.0,5.0,54,0.00,,,0.00,3.000000,,2013-06-03 12:32:00,
2013-06-03 06:42:00,37.0,22.0,-100.00,NW,318,3.0,5.0,54,0.00,,,0.00,3.000000,,2013-06-03 12:42:00,
2013-06-03 06:52:00,37.0,22.0,-100.00,NW,318,3.0,5.0,54,0.00,,,0.00,3.000000,,2013-06-03 12:52:00,
2013-06-03 07:22:00,43.0,25.0,-100.00,North,357,1.0,5.0,48,0.00,,,0.00,97.000000,,2013-06-03 13:22:00,
2013-06-03 07:32:00,43.0,25.0,-100.00,North,357,1.0,5.0,48,0.00,,,0.00,97.000000,,2013-06-03 13:32:00,
2013-06-03 07:42:00,43.0,25.0,-100.00,North,357,1.0,5.0,48,0.00,,,0.00,97.000000,,2013-06-03 13:42:00,
2013-06-03 07:52:00,43.0,25.0,-100.00,North,357,1.0,5.0,48,0.00,,,0.00,97.000000,,2013-06-03 13:52:00,
2013-06-03 08:22:00,48.0,27.0,-100.00,East,80,2.0,4.0,44,0.00,,,0.00,317.000000,,2013-06-03 14:22:00,
2013-06-03 08:32:00,48.0,27.0,-100.00,East,80,2.0,4.0,44,0.00,,,0.00,317.000000,,2013-06-03 14:32:00,
2013-06-03 08:42:00,48.0,27.0,-100.00,East,80,2.0,4.0,44,0.00,,,0.00,317.000000,,2013-06-03 14:42:00,
2013-06-03 08:52:00,48.0,27.0,-100.00,East,80,2.0,4.0,44,0.00,,,0.00,317.000000,,2013-06-03 14:52:00,
2013-06-03 09:22:00,53.0,28.0,-100.00,ESE,105,4.0,7.0,38,0.00,,,0.00,537.000000,,2013-06-03 15:22:00,
2013-06-03 09:33:00,53.0,28.0,-100.00,ESE,105,4.0,7.0,38,0.00,,,0.00,537.000000,,2013-06-03 15:33:00,
2013-06-03 09:43:00,53.0,28.0,-100.00,ESE,105,4.0,7.0,38,0.00,,,0.00,537.000000,,2013-06-03 15:43:00,
2013-06-03 09:53:00,53.0,28.0,-100.00,ESE,105,4.0,7.0,38,0.00,,,0.00,537.000000,,2013-06-03 15:53:00,
2013-06-03 10:23:00,60.0,25.0,-100.00,NE,37,4.0,11.0,26,0.00,,,0.00,772.000000,,2013-06-03 16:23:00,
2013-06-03 10:33:00,60.0,25.0,-100.00,NE,37,4.0,11.0,26,0.00,,,0.00,772.000000,,2013-06-03 16:33:00,
2013-06-03 10:42:00,60.0,25.0,-100.00,NE,37,4.0,11.0,26,0.00,,,0.00,772.000000,,2013-06-03 16:42:00,
2013-06-03 10:53:00,60.0,25.0,-100.00,NE,37,4.0,11.0,26,0.00,,,0.00,772.000000,,2013-06-03 16:53:00,
2013-06-03 11:22:00,61.0,16.0,-100.00,WNW,289,9.0,24.0,17,0.00,,,0.00,875.000000,,2013-06-03 17:22:00,
2013-06-03 11:33:00,61.0,16.0,-100.00,WNW,289,9.0,24.0,17,0.00,,,0.00,875.000000,,2013-06-03 17:33:00,
2013-06-03 11:42:00,61.0,16.0,-100.00,WNW,289,9.0,24.0,17,0.00,,,0.00,875.000000,,2013-06-03 17:42:00,
2013-06-03 11:52:00,61.0,16.0,-100.00,WNW,289,9.0,24.0,17,0.00,,,0.00,875.000000,,2013-06-03 17:52:00,
2013-06-03 12:22:00,63.0,16.0,-100.00,WSW,258,15.0,35.0,16,0.00,,,0.00,1130.000000,,2013-06-03 18:22:00,
2013-06-03 12:32:00,63.0,16.0,-100.00,WSW,258,15.0,35.0,16,0.00,,,0.00,1130.000000,,2013-06-03 18:32:00,
2013-06-03 12:42:00,63.0,16.0,-100.00,WSW,258,15.0,35.0,16,0.00,,,0.00,1130.000000,,2013-06-03 18:42:00,
2013-06-03 12:52:00,63.0,16.0,-100.00,WSW,258,15.0,35.0,16,0.00,,,0.00,1130.000000,,2013-06-03 18:52:00,
2013-06-03 13:22:00,64.0,18.0,-100.00,West,268,11.0,31.0,17,0.00,,,0.00,957.000000,,2013-06-03 19:22:00,
2013-06-03 13:32:00,64.0,18.0,-100.00,West,268,11.0,31.0,17,0.00,,,0.00,957.000000,,2013-06-03 19:32:00,
2013-06-03 13:42:00,64.0,18.0,-100.00,West,268,11.0,31.0,17,0.00,,,0.00,957.000000,,2013-06-03 19:42:00,
2013-06-03 13:52:00,64.0,18.0,-100.00,West,268,11.0,31.0,17,0.00,,,0.00,957.000000,,2013-06-03 19:52:00,
2013-06-03 14:22:00,64.0,15.0,-100.00,West,278,11.0,24.0,15,0.00,,,0.00,1209.000000,,2013-06-03 20:22:00,
2013-06-03 14:32:00,64.0,15.0,-100.00,West,278,11.0,24.0,15,0.00,,,0.00,1209.000000,,2013-06-03 20:32:00,
2013-06-03 14:42:00,64.0,15.0,-100.00,West,278,11.0,24.0,15,0.00,,,0.00,1209.000000,,2013-06-03 20:42:00,
2013-06-03 14:52:00,64.0,15.0,-100.00,West,278,11.0,24.0,15,0.00,,,0.00,1209.000000,,2013-06-03 20:52:00,
2013-06-03 15:22:00,65.0,19.0,-100.00,WNW,285,9.0,28.0,17,0.00,,,0.00,942.000000,,2013-06-03 21:22:00,
2013-06-03 15:33:00,65.0,19.0,-100.00,WNW,285,9.0,28.0,17,0.00,,,0.00,942.000000,,2013-06-03 21:33:00,
2013-06-03 15:43:00,65.0,19.0,-100.00,WNW,285,9.0,28.0,17,0.00,,,0.00,942.000000,,2013-06-03 21:43:00,
2013-06-03 15:53:00,65.0,19.0,-100.00,WNW,285,9.0,28.0,17,0.00,,,0.00,942.000000,,2013-06-03 21:53:00,
2013-06-03 16:22:00,63.0,20.0,-100.00,NNW,342,11.0,29.0,19,0.00,,,0.00,855.000000,,2013-06-03 22:22:00,
2013-06-03 16:33:00,63.0,20.0,-100.00,NNW,342,11.0,29.0,19,0.00,,,0.00,855.000000,,2013-06-03 22:33:00,
2013-06-03 16:42:00,63.0,20.0,-100.00,NNW,342,11.0,29.0,19,0.00,,,0.00,855.000000,,2013-06-03 22:42:00,
2013-06-03 16:52:00,63.0,20.0,-100.00,NNW,342,11.0,29.0,19,0.00,,,0.00,855.000000,,2013-06-03 22:52:00,
2013-06-03 17:22:00,61.0,22.0,-100.00,West,266,10.0,24.0,22,0.00,,,0.00,365.000000,,2013-06-03 23:22:00,
2013-06-03 17:32:00,61.0,22.0,-100.00,West,266,10.0,24.0,22,0.00,,,0.00,365.000000,,2013-06-03 23:32:00,
2013-06-03 17:42:00,61.0,22.0,-100.00,West,266,10.0,24.0,22,0.00,,,0.00,365.000000,,2013-06-03 23:42:00,
2013-06-03 17:52:00,61.0,22.0,-100.00,West,266,10.0,24.0,22,0.00,,,0.00,365.000000,,2013-06-03 23:52:00,
2013-06-03 18:22:00,61.0,26.0,-100.00,WNW,291,6.0,24.0,26,0.00,,,0.00,442.000000,,2013-06-04 00:22:00,
2013-06-03 18:32:00,61.0,26.0,-100.00,WNW,291,6.0,24.0,26,0.00,,,0.00,442.000000,,2013-06-04 00:32:00,
2013-06-03 18:42:00,61.0,26.0,-100.00,WNW,291,6.0,24.0,26,0.00,,,0.00,442.000000,,2013-06-04 00:42:00,
2013-06-03 18:52:00,61.0,26.0,-100.00,WNW,291,6.0,24.0,26,0.00,,,0.00,442.000000,,2013-06-04 00:52:00,
2013-06-03 19:22:00,59.0,23.0,-100.00,West,279,10.0,22.0,25,0.00,,,0.00,396.000000,,2013-06-04 01:22:00,
2013-06-03 19:32:00,59.0,23.0,-100.00,West,279,10.0,22.0,25,0.00,,,0.00,396.000000,,2013-06-04 01:32:00,
2013-06-03 19:42:00,59.0,23.0,-100.00,West,279,10.0,22.0,25,0.00,,,0.00,396.000000,,2013-06-04 01:42:00,
2013-06-03 19:52:00,59.0,23.0,-100.00,West,279,10.0,22.0,25,0.00,,,0.00,396.000000,,2013-06-04 01:52:00,
2013-06-03 20:22:00,54.0,23.0,-100.00,West,261,8.0,22.0,30,0.00,,,0.00,152.000000,,2013-06-04 02:22:00,
2013-06-03 20:32:00,54.0,23.0,-100.00,West,261,8.0,22.0,30,0.00,,,0.00,152.000000,,2013-06-04 02:32:00,
2013-06-03 20:42:00,54.0,23.0,-100.00,West,261,8.0,22.0,30,0.00,,,0.00,152.000000,,2013-06-04 02:42:00,
2013-06-03 20:52:00,54.0,23.0,-100.00,West,261,8.0,22.0,30,0.00,,,0.00,152.000000,,2013-06-04 02:52:00,
2013-06-03 21:22:00,50.0,27.0,-100.00,WSW,237,11.0,19.0,41,0.00,,,0.00,7.000000,,2013-06-04 03:22:00,
2013-06-03 21:32:00,50.0,27.0,-100.00,WSW,237,11.0,19.0,41,0.00,,,0.00,7.000000,,2013-06-04 03:32:00,
2013-06-03 21:43:00,50.0,27.0,-100.00,WSW,237,11.0,19.0,41,0.00,,,0.00,7.000000,,2013-06-04 03:43:00,
2013-06-03 21:53:00,50.0,27.0,-100.00,WSW,237,11.0,19.0,41,0.00,,,0.00,7.000000,,2013-06-04 03:53:00,
2013-06-03 22:23:00,46.0,27.0,-100.00,ESE,104,1.0,16.0,48,0.00,,,0.00,0.000000,,2013-06-04 04:23:00,
2013-06-03 22:33:00,46.0,27.0,-100.00,ESE,104,1.0,16.0,48,0.00,,,0.00,0.000000,,2013-06-04 04:33:00,
2013-06-03 22:42:00,46.0,27.0,-100.00,ESE,104,1.0,16.0,48,0.00,,,0.00,0.000000,,2013-06-04 04:42:00,
2013-06-03 22:53:00,46.0,27.0,-100.00,ESE,104,1.0,16.0,48,0.00,,,0.00,0.000000,,2013-06-04 04:53:00,
2013-06-03 23:22:00,45.0,27.0,-100.00,WNW,284,4.0,8.0,48,0.00,,,0.00,0.000000,,2013-06-04 05:22:00,
2013-06-03 23:32:00,45.0,27.0,-100.00,WNW,284,4.0,8.0,48,0.00,,,0.00,0.000000,,2013-06-04 05:32:00,
2013-06-03 23:42:00,45.0,27.0,-100.00,WNW,284,4.0,8.0,48,0.00,,,0.00,0.000000,,2013-06-04 05:42:00,
2013-06-03 23:52:00,45.0,27.0,-100.00,WNW,284,4.0,8.0,48,0.00,,,0.00,0.000000,,2013-06-04 05:52:00,